Showing default

OPS 9343 (IDSCS 21), 3286

Orbit data source: Space-Track

OPS 9343 (IDSCS 21), 3286 is a payload satellite owned by SAMSO (US) in GEO that was launched on Thu, 13 Jun 1968 UTC via a TITAN IIIC launch vehicle from the Air Force Eastern Test Range (AFETR). Payload-class satellites include a variety of spacecraft equipped with specific instruments for various scientific and technological missions. These include communications satellites like Starlink; space stations such as the ISS; scientific satellites like the Hubble; Earth observation satellites from companies like Planet Labs, Umbra, and HawkEye 360; GPS; miniature CubeSats for education and research; and military/defense satellites.

Not visible in the next 10 days
Identifier
3286, 1968-050C
Orbit
GEO
Country
Flag of USUS
Related business
Manufacturer
Philco-Ford
Mission
Non-operational spacecraft
Bus & Motor
IDCSP, Unknown motor
Mass
45 kg wet, 45 kg dry
Launch date (UTC)
1968-06-13 (58 years ago)
Launch vehicle
TITAN IIIC
Launch site
Air Force Eastern Test Range (AFETR)
Object type
Payload
Rocket body
Debris
Shape & HBR
POLY, 1.1 m
Radar Cross Section
Medium (>0.1 m² and <1 m²)

Expand to show TLE details & history
Last TLE update: 2 months ago

TLE from 2 months ago
0 OPS 9343 (IDSCS 21)
1  3286U 68050C   26206.15746587 -.00000115  00000-0  00000+0 0  9994
2  3286   7.2953  51.5426 0019267 150.6571  39.9461  1.07758682 47861
Epoch: 2026-07-25T03:46Z
TLE epoch observation values (Epoch: 2026-07-25T03:46:45.051Z)
Latitude
-1.35791°
Longitude
-117.34887°
Altitude
33,750.91 km
Speed
3.154 km/s
True Right ascension
16h 08m 51s
True Declination
-1° 21' 23"
Sunlit
Object was in daylight at epoch
Visualization orbit readout
Latitude
Unknown
Longitude
Unknown
Altitude
Unknown
Speed
Unknown
Apparent Right ascension
Unknown
Apparent Declination
Unknown
Sunlit
N/A
Visualization observer readout
Local Sidereal Time
03:40:02
Azimuth
Unknown
Elevation
Unknown
Doppler factor
Unknown
Orbital elements
Apogee altitude
33,888.754 km
Perigee altitude
33,733.888 km
Semi-major axis
40,189.458 km
Eccentricity
0.00193
Inclination
7.2953°
RAAN
51.5426°
Arg. of periapsis
150.6571°
True anomaly
40.08812°
Mean anomaly
39.9461°
Eccentric anomaly
40.01708°
Mean motion
0.26939 °/min
Orbital period
1,336.37 mins
BSTAR
0
Loading maneuver chart data...
Computing Atmospheric mass density...
Loading historical data...
Loading historical data...
Loading historical data...
Loading historical data...
Loading historical data...
Loading historical data...
Loading historical data...

Documentation

Showing up to 5 results
|